CW7701 Weather Reports


time (UTC)temp
C
wind
direction
speed
KPH
gust
KPH
rain 1hr
cm
rain 24hr
cm
rain mn
cm
humidity
%
barometer
mb
20260831143052 29 102 0.0 3.2 0.00 0.00 0.00 68 1011.6
20260831141550 28 102 1.6 4.8 0.00 0.00 0.00 68 1011.4
20260831140045 28 102 3.2 6.4 0.00 0.00 0.00 70 1011.3
20260831134543 28 102 0.0 3.2 0.00 0.00 0.00 71 1011.2
20260831133038 28 102 1.6 4.8 0.00 0.00 0.00 70 1011.0
20260831131540 28 103 1.6 6.4 0.00 0.00 0.00 71 1010.8
20260831130045 27 355 1.6 4.8 0.00 0.00 0.00 72 1010.8
20260831124536 27 355 1.6 4.8 0.00 0.00 0.00 72 1010.6
20260831123035 27 355 1.6 4.8 0.00 0.00 0.00 72 1010.5
20260831121537 27 355 1.6 4.8 0.00 0.00 0.00 72 1010.4
20260831120032 27 355 0.0 3.2 0.00 0.00 0.00 72 1010.3
20260831114534 28 355 1.6 8.0 0.00 0.00 0.00 71 1010.2
20260831113032 28 355 1.6 3.2 0.00 0.00 0.00 71 1010.3
20260831111540 28 355 3.2 6.4 0.00 0.00 0.00 72 1010.3
20260831104547 28 355 1.6 6.4 0.00 0.00 0.00 69 1009.9
20260831103049 28 350 3.2 9.7 0.00 0.00 0.00 68 1009.8
20260831101545 28 254 1.6 4.8 0.00 0.00 0.00 68 1010.0
20260831100043 28 254 0.0 4.8 0.00 0.00 0.00 68 1010.0
20260831094541 28 254 1.6 6.4 0.00 0.00 0.00 68 1010.1
20260831093040 28 254 0.0 4.8 0.00 0.00 0.00 68 1010.1
20260831091538 28 254 1.6 6.4 0.00 0.00 0.00 68 1010.4
20260831090033 28 254 1.6 6.4 0.00 0.00 0.00 69 1010.5
20260831084540 28 254 1.6 6.4 0.00 0.00 0.00 69 1010.7
20260831083030 28 254 0.0 4.8 0.00 0.00 0.00 68 1010.8
20260831081530 28 254 1.6 4.8 0.00 0.00 0.00 68 1010.8
20260831080028 29 254 1.6 6.4 0.00 0.00 0.00 68 1010.8
20260831074537 29 254 3.2 8.0 0.00 0.00 0.00 67 1010.7
20260831073056 29 253 3.2 6.4 0.00 0.00 0.00 68 1010.7
20260831071521 29 253 3.2 8.0 0.00 0.00 0.00 69 1010.7
20260831070026 29 248 1.6 6.4 0.00 0.00 0.00 68 1010.8
20260831064530 29 248 1.6 6.4 0.00 0.00 0.00 67 1010.7
20260831063021 30 247 3.2 6.4 0.00 0.00 0.00 67 1010.8
20260831061525 30 247 1.6 6.4 0.00 0.00 0.00 66 1010.9
20260831060018 30 247 1.6 3.2 0.00 0.00 0.00 65 1010.9
20260831054517 30 247 1.6 4.8 0.00 0.00 0.00 65 1011.0
20260831053022 30 247 0.0 3.2 0.00 0.00 0.00 65 1011.0
20260831051517 30 247 1.6 6.4 0.00 0.00 0.00 65 1010.9
20260831050034 30 247 1.6 6.4 0.00 0.00 0.00 65 1010.9
20260831044516 30 247 1.6 4.8 0.00 0.00 0.00 65 1010.9
20260831043015 30 247 1.6 3.2 0.00 0.00 0.00 65 1010.9
20260831041514 30 247 1.6 3.2 0.00 0.00 0.00 65 1010.8
20260831040037 31 247 1.6 3.2 0.00 0.00 0.00 65 1010.5
20260831034512 31 247 1.6 8.0 0.00 0.00 0.00 63 1010.3
20260831033018 31 246 1.6 6.4 0.00 0.00 0.00 60 1010.1
20260831031511 31 245 1.6 6.4 0.00 0.00 0.00 59 1009.8
20260831030023 31 244 0.0 4.8 0.00 0.00 0.00 61 1009.6
20260831024511 31 244 1.6 4.8 0.00 0.00 0.00 59 1009.6
20260831023009 32 242 1.6 3.2 0.00 0.00 0.00 57 1009.4
20260831021508 32 242 0.0 4.8 0.00 0.00 0.00 56 1009.2
20260831020008 32 242 1.6 4.8 0.00 0.00 0.00 55 1009.2
20260831014507 32 242 1.6 6.4 0.00 0.00 0.00 55 1008.8
20260831013007 33 242 1.6 6.4 0.00 0.00 0.00 55 1008.5
20260831011506 33 242 1.6 3.2 0.00 0.00 0.00 54 1008.5
20260831010006 34 242 1.6 3.2 0.00 0.00 0.00 54 1008.3
20260831004509 34 242 1.6 6.4 0.00 0.00 0.00 54 1008.2
20260831003007 34 242 1.6 8.0 0.00 0.00 0.00 55 1008.0
20260831001508 34 243 1.6 6.4 0.00 0.00 0.00 54 1007.8
20260831000005 34 243 1.6 4.8 0.00 0.00 0.00 53 1007.7
20260830234504 34 243 3.2 8.0 0.00 0.00 0.00 50 1007.7
20260830233002 33 259 1.6 9.7 0.00 0.00 0.00 50 1007.9
20260830231559 34 257 3.2 6.4 0.00 0.00 0.00 51 1008.1
20260830230057 34 257 3.2 6.4 0.00 0.00 0.00 49 1008.2
20260830224554 34 257 3.2 9.7 0.00 0.00 0.00 49 1008.4
20260830223054 33 256 1.6 11.3 0.00 0.00 0.00 53 1008.5
20260830221552 32 211 8.0 16.1 0.00 0.00 0.00 56 1008.7
20260830220101 32 207 4.8 12.9 0.00 0.00 0.00 56 1009.0
20260830214550 33 197 4.8 14.5 0.00 0.00 0.00 55 1009.1
20260830213046 32 229 8.0 14.5 0.00 0.00 0.00 52 1009.3
20260830211548 31 240 3.2 14.5 0.00 0.00 0.00 54 1009.6
20260830210042 31 234 9.7 17.7 0.00 0.00 0.00 55 1009.8
20260830204553 31 248 9.7 17.7 0.00 0.00 0.00 56 1010.3
20260830203037 31 250 9.7 19.3 0.00 0.00 0.00 58 1010.5
20260830201534 31 261 8.0 17.7 0.00 0.00 0.00 59 1010.8
20260830200037 31 96 1.6 4.8 0.00 0.00 0.00 56 1011.2
20260830194536 31 96 3.2 16.1 0.00 0.00 0.00 56 1011.3
20260830193030 33 90 8.0 17.7 0.00 0.00 0.00 56 1011.4
20260830191608 35 101 6.4 24.1 0.00 0.00 0.00 53 1011.0
20260830190032 36 109 8.0 20.9 0.00 0.00 0.00 54 1011.3
20260830184525 36 157 8.0 24.1 0.00 0.00 0.00 58 1011.3
20260830183021 36 155 14.5 25.7 0.00 0.00 0.00 61 1011.7
20260830181519 36 178 3.2 12.9 0.00 0.00 0.00 60 1011.5
20260830180016 35 144 6.4 19.3 0.00 0.00 0.00 61 1011.7
20260830174515 36 124 4.8 12.9 0.00 0.00 0.00 56 1011.8
20260830173013 36 360 3.2 9.7 0.00 0.00 0.00 51 1011.9
20260830171507 36 360 1.6 14.5 0.00 0.00 0.00 53 1012.0
20260830170003 35 329 6.4 16.1 0.00 0.00 0.00 54 1012.2
20260830164559 35 290 4.8 16.1 0.00 0.00 0.00 56 1012.3
20260830163056 35 55 8.0 20.9 0.00 0.00 0.00 57 1012.2
20260830161602 34 5 4.8 16.1 0.00 0.00 0.00 60 1012.3
20260830160052 33 302 6.4 17.7 0.00 0.00 0.00 62 1012.4
20260830154544 32 32 4.8 17.7 0.00 0.00 0.00 64 1012.2
20260830153040 32 299 8.0 20.9 0.00 0.00 0.00 65 1012.3
20260830151536 31 40 4.8 16.1 0.00 0.00 0.00 65 1012.2
20260830150039 30 5 4.8 14.5 0.00 0.00 0.00 67 1012.2
20260830144530 29 20 3.2 9.7 0.00 0.00 0.00 68 1012.1